Regional Weather Roundup
Issued by NWS

Home | Current Version | Previous Version | Text Only | Print | Product List | Glossary Off
Versions: 1 2 3 4 5 6 7 8 9 10 11 12 13 14 15 16 17 18 19 20 21 22 23 24 25 26 27 28 29 30 31 32 33 34 35 36 37 38 39 40 41 42 43 44 45 46 47 48 49 50

000
ASUS43 KDMX 300903
RWRIA

WEATHER ROUNDUP FOR IOWA
NATIONAL WEATHER SERVICE DES MOINES IA
400 AM CDT SAT JUL 30 2016

NOTE: "FAIR" INDICATES FEW OR NO CLOUDS BELOW 12,000 FEET WITH NO
SIGNIFICANT WEATHER AND/OR OBSTRUCTIONS TO VISIBILITY.

* - THESE STATIONS ARE NOT NWS STATIONS...THUS NOT UNDER NWS
QUALITY CONTROL.  THEY ALSO DO NOT REPORT WEATHER SUCH
AS PRECIPITATION OR FOG.

IAZ001>003-012>014-020>022-031>034-043>046-301000-
   NORTHWEST IOWA

CITY           SKY/WX    TMP DP  RH WIND       PRES   REMARKS
CARROLL *      PTCLDY    61  61 100 NW5       30.02S
CHEROKEE *     PTCLDY    59  59 100 CALM      30.04S
DENISON *      PTCLDY    59  59 100 CALM      30.02R
LE MARS *      CLEAR     59  57  94 CALM      30.04F
SHELDON *      PTCLDY    54  54 100 CALM      30.03F
SIOUX CITY     FOG       59  58  96 CALM      30.02F VSB 1/2
SPENCER        PTCLDY    55  52  89 CALM      30.04F
STORM LAKE *   CLEAR     61  59  94 NW6       30.04F
$$

IAZ055>058-069>071-079>083-090>094-301000-
   SOUTHWEST IOWA

CITY           SKY/WX    TMP DP  RH WIND       PRES   REMARKS
ATLANTIC *     CLEAR     61  61 100 CALM      30.03R
CLARINDA *       N/A     59  59 100 MISG      30.04S
COUNCIL BLFS *   N/A     61  61 100 NE5       30.03S
CRESTON *      CLOUDY    61  61 100 W6        30.04R
HARLAN  *      PTCLDY    57  57 100 CALM      30.07R
LAMONI         PTCLDY    61  61 100 NW6       30.01S
RED OAK *      PTCLDY    61  59  94 CALM      30.02S
SHENANDOAH *   FOG       59  59 100 CALM      30.03S VSB 3/4
$$

IAZ047>049-059>061-072>074-084-301000-
   CENTRAL IOWA

CITY           SKY/WX    TMP DP  RH WIND       PRES   REMARKS
AMES           PTCLDY    62  62 100 NW5       30.00S
ANKENY *         N/A    N/A N/A N/A MISG        N/A
BOONE *        PTCLDY    63  61  94 NW5       30.00S
CHARITON *       N/A    N/A N/A N/A MISG        N/A
DES MOINES     CLOUDY    67  64  90 NW3       29.99S
GRINNELL*      CLOUDY    66  64  92 N3        29.99F
KNOXVILLE *    CLOUDY    66  64  94 NW3       29.97S
MARSHALLTOWN   MOCLDY    63  63 100 N3        29.98F
NEWTON *       CLOUDY    66  66 100 N5        29.98S
PELLA *        MOCLDY    66  65  96 CALM      30.00R
PERRY *        CLOUDY    62  62  99 W3        30.01S
$$

IAZ004>006-015-016-023>025-035-036-301000-
   NORTH CENTRAL IOWA

CITY           SKY/WX    TMP DP  RH WIND       PRES   REMARKS
ALGONA *       CLOUDY    64  61  88 N3        30.03S
ESTHERVILLE    MOCLDY    56  55  97 CALM      30.04S
FORT DODGE *   CLOUDY    64  63  94 NW3       30.03S
MASON CITY     CLOUDY    61  60  97 N3        30.04R
FOREST CITY *  CLOUDY    63  63 100 CALM      30.02S
IOWA FALLS *   MOCLDY    64  63  95 NE3       30.01F
$$

IAZ007>011-017>019-026>030-037>042-050>054-066-301000-
   NORTHEAST IOWA

CITY           SKY/WX    TMP DP  RH WIND       PRES   REMARKS
CEDAR RAPIDS   CLOUDY    67  67 100 N6        29.97S FOG
CHARLES CITY * MOCLDY    64  64 100 N3        30.02R FOG
CLINTON *      CLOUDY    67  66  97 NE6       29.96S
DECORAH *      CLOUDY    66  66 100 CALM      30.01S
DUBUQUE        CLOUDY    66  64  93 NE8       29.99S
MONTICELLO *   CLOUDY    66  64  94 N5        29.97F
OELWEIN *      CLOUDY    66  64  94 N5        30.00S
WATERLOO       MOCLDY    65  64  97 NE3       29.98F
$$

IAZ064-065-067-068-078-301000-
   EAST CENTRAL IOWA

CITY           SKY/WX    TMP DP  RH WIND       PRES   REMARKS
DAVENPORT      CLOUDY    68  65  90 NE7       29.96S
IOWA CITY      CLOUDY    69  66  90 NE7       29.97F
MT. PLEASANT * CLOUDY    70  70 100 CALM      29.96S FOG
MUSCATINE *    CLOUDY    68  66  94 CALM      29.96R
QUAD CITIES    CLOUDY    71  65  81 NE7       29.94S
$$

IAZ062-063-075>077-085>089-095>099-301000-
   SOUTHEAST IOWA

CITY           SKY/WX    TMP DP  RH WIND       PRES   REMARKS
BURLINGTON     CLOUDY    68  68 100 NW5       29.94S
FAIRFIELD *    CLOUDY    66  66 100 CALM      29.96S FOG
KEOKUK *       CLOUDY    68  68 100 CALM      29.95S
OSKALOOSA *    CLOUDY    65  64  97 NW3       29.98
CENTERVILLE *  CLOUDY    66  64  94 CALM      30.00S
OTTUMWA        CLOUDY    66  65  96 NW6       29.97S
WASHINGTON *   CLOUDY    68  66  94 N3        29.97S FOG
$$

ABBREVIATIONS USED IN REMARKS
   TC - TEMPERATURES IN CELSIUS
  WCI - WIND CHILL INDEX
   HX - HEAT INDEX
  VSB - VISIBILITY
$$





USA.gov is the U.S. government's official web portal to all federal, state and local government web resources and services.